Regional Weather Roundup
Issued by NWS Goodland, KS

Home | Current Version | Previous Version | Graphics & Text | Print | Product List | Glossary On
Versions: 1 2 3 4 5 6 7 8 9 10 11 12 13 14 15 16 17 18 19 20 21 22 23 24 25 26 27 28 29 30 31 32 33 34 35 36 37 38 39 40 41 42 43 44 45 46 47 48 49 50
000
ASUS43 KGLD 021808
RWRGLD

GOODLAND FORECAST AREA HOURLY WEATHER ROUNDUP
NATIONAL WEATHER SERVICE GOODLAND KS
1200 PM MDT MON MAY 02 2016

...OFFICIAL OBSERVATIONS...

CITY           SKY/WX    TMP DP  RH WIND       PRES   REMARKS
GOODLAND KS    SUNNY     56  30  37 N8        30.19F
HILL CITY KS   SUNNY     61  34  36 N10       30.18F
IMPERIAL NEB   SUNNY     57  33  40 NW13G18   30.17F
MCCOOK NEB     SUNNY     59  36  42 VRB7      30.15F
AKRON CO       SUNNY     50  29  44 W6        30.21F
BURLINGTON CO  SUNNY     55  29  36 NW13      30.21F
LIMON CO       SUNNY     41  31  67 W9        30.24F
$$

...UNOFFICIAL OBSERVATIONS...

CITY           SKY/WX    TMP DP  RH WIND       PRES   REMARKS
COLBY KS       SUNNY     57  39  51 W10G17    30.19F
LENORA KS        N/A     56  32  40 MISG        N/A
NORTON KS      SUNNY     57  34  41 W5        30.15F
SHARON SPRINGS   N/A     54  34  47 CALM        N/A
TRIBUNE KS     SUNNY     55  32  41 NW10G17   30.23F
KIT CARSON CO    N/A     54  34  46 MISG        N/A
YUMA CO          N/A     53  33  47 N9          N/A
$$



USA.gov is the U.S. government's official web portal to all federal, state and local government web resources and services.